Location: Columbia
(38.9520°N, 92.3340°W)
Time: 01:08:08
(UTC-05:00)

Cosmos 2219 Rocket - Visible Passes

Search period start: 01 November 2014 00:00
Search period end: 10 November 2014 23:00
Orbit: 827 x 849 km, 71.0° (Epoch: 31 October)

Date Brightness Start Highest point End Pass type
(mag) Time Alt. Az. Time Alt. Az. Time Alt. Az.
01 Nov 5.0 19:50:29 10° WNW 19:52:00 11° NW 19:53:32 10° NNW visible
02 Nov 4.9 18:33:36 10° WNW 18:35:39 12° NW 18:37:43 10° NNW visible
03 Nov 4.8 18:16:51 10° WNW 18:19:19 13° NW 18:21:47 10° NNW visible
04 Nov 4.7 18:00:10 10° W 18:02:58 14° NW 18:05:47 10° NNW visible
05 Nov 4.7 17:43:33 10° W 17:46:38 15° NW 17:49:44 10° NNW visible
06 Nov 4.6 17:26:57 10° W 17:30:18 16° NW 17:33:40 10° NNW visible
